Temp
62 61 60 59 59 60 60 60 59 59 60 61 60 60 60 59 58 58 58 57 57 56 56 56 56 55 55 55 54 54 53 53 53 52 52 52 52 52 52 51 51 51 51 50 50 49 49 49 48 49 49 48 48 48 47 48 47 47 47 46 46 45 45 44 44 44 44 44 44
62 61 59 57 57 59 60 60 59 59 60 60 60 59 59 59 58 58 58 57 57 56 56 56 55 55 54 54 54 53 53 52 53 52 52 52 52 52 52 51 51 51 51 50 50 49 48 48 48 48 48 48 48 47 47 48 48 47 46 46 46 45 45 44 44 44 44 44 44
62 61 61 60 60 60 60 60 60 60 60 60 60 59 59 58 58 58 58 57 57 56 55 55 54 54 54 54 54 53 53 52 52 52 52 51 52 52 51 51 51 51 50 49 49 48 48 48 47 47 48 48 47 46 46 47 46 46 45 45 45 45 45 44 44 44 44 44 43
62 62 62 61 61 61 60 60 60 60 59 59 59 59 58 58 58 58 57 57 56 55 55 54 54 54 54 53 53 53 53 52 52 52 52 51 51 51 51 51 50 50 49 49 49 48 48 47 47 48 47 47 46 46 46 47 46 45 45 44 44 44 44 44 44 44 44 43 43
62 61 61 61 61 60 60 60 60 59 59 59 59 58 58 58 57 57 57 56 56 55 54 54 54 54 53 53 54 53 53 53 51 51 51 51 51 51 50 51 50 49 49 49 48 48 47 47 48 47 47 46 46 46 46 46 45 44 44 44 44 44 44 43 43 43 43 43 42
61 61 61 60 60 60 60 60 60 59 59 59 58 57 57 57 57 56 56 56 55 54 54 53 53 53 53 54 54 53 53 52 51 51 51 51 50 50 50 50 50 49 49 48 48 47 47 46 47 47 47 46 46 46 45 45 44 44 43 43 43 43 43 42 43 42 42 41 41
62 62 61 61 61 60 59 59 59 59 59 58 57 56 56 56 55 55 55 55 55 54 53 52 52 53 53 54 53 52 52 51 51 51 51 50 50 50 50 50 50 49 49 48 48 47 46 46 47 46 46 46 46 45 45 44 43 43 42 42 43 43 42 41 42 41 41 40 40
63 63 63 63 62 61 60 60 60 59 58 58 57 56 56 55 56 56 55 55 54 54 53 53 54 54 54 53 53 52 52 52 51 51 51 50 50 50 50 50 49 49 49 48 47 47 46 46 46 46 45 45 45 45 44 44 43 42 41 41 42 42 41 40 40 40 40 39 39
63 63 62 62 62 61 61 61 60 59 58 58 57 56 55 55 56 56 55 54 54 54 54 54 54 54 54 53 53 53 52 52 51 51 50 50 51 50 50 49 49 49 48 48 47 47 46 46 46 45 45 45 44 44 43 43 42 41 41 40 40 41 41 40 40 40 39 39 38
62 62 61 61 60 60 61 60 60 59 59 58 57 56 54 53 54 54 54 54 54 54 54 54 54 54 54 53 53 53 52 52 51 51 51 51 51 51 50 49 49 48 48 47 47 46 46 45 44 44 44 43 43 43 43 43 42 41 40 40 40 40 40 40 40 40 39 39 38
62 62 61 61 60 60 60 60 59 59 58 58 57 56 55 53 54 54 55 55 54 54 55 55 55 54 53 53 53 53 52 52 51 51 51 51 51 51 51 50 49 49 48 48 47 46 45 45 44 44 44 43 43 42 42 42 42 41 40 40 40 39 39 40 39 39 39 39 38
62 62 62 61 61 60 60 60 59 59 58 58 58 57 57 56 56 56 55 55 54 54 55 55 55 54 53 52 53 52 52 52 52 51 51 51 51 51 51 50 50 49 49 48 47 46 45 44 44 43 43 43 42 42 42 42 41 41 40 40 40 39 39 39 39 39 39 39 38
62 62 62 61 61 60 60 59 59 59 58 58 58 58 58 57 57 57 56 56 55 54 54 55 55 54 53 53 53 52 52 52 52 51 51 51 51 51 51 50 50 49 48 48 47 46 45 44 44 44 43 42 42 41 41 42 41 40 40 40 39 39 38 39 39 39 39 38 38
62 61 61 61 60 60 59 59 58 58 58 58 58 58 58 58 57 57 56 55 55 54 54 54 54 53 53 53 53 53 52 52 52 52 51 51 51 51 50 50 49 49 48 47 46 46 45 44 44 43 42 42 41 41 41 41 41 40 40 39 39 38 38 38 39 39 38 37 37
61 61 61 60 60 59 59 59 58 58 58 58 58 58 58 57 57 56 55 55 55 54 53 53 53 53 53 54 54 53 53 52 52 51 51 51 51 51 50 50 49 48 48 47 46 46 45 45 44 43 42 41 41 41 41 41 41 40 40 39 39 39 39 39 39 39 38 37 37
61 61 61 60 60 59 59 58 58 58 58 58 58 58 58 57 57 56 55 55 54 54 53 53 53 53 53 53 53 53 52 52 51 51 51 51 51 51 50 49 49 48 48 47 46 45 45 44 43 42 42 41 41 41 41 41 41 41 41 41 40 40 40 40 40 39 38 37 37
61 61 61 60 60 59 59 58 58 58 58 58 58 58 57 57 56 55 54 54 54 53 53 54 53 53 52 52 52 52 52 51 51 51 51 51 51 50 49 49 48 48 47 47 46 46 45 44 43 42 42 41 41 41 42 42 41 41 41 41 41 41 40 39 39 38 38 37 36
61 61 61 60 60 60 59 59 58 58 58 58 58 57 57 56 56 55 54 54 54 54 54 53 53 53 52 52 52 51 51 51 51 51 50 50 50 50 49 49 48 48 47 47 46 46 45 44 44 43 42 42 42 41 41 41 41 41 41 41 40 40 39 39 38 38 37 37 36
61 61 61 60 60 60 59 58 58 58 58 58 58 57 57 57 56 56 55 54 54 54 53 53 53 52 52 52 52 51 50 51 51 51 51 50 50 49 49 49 48 48 48 47 47 46 45 44 43 42 42 42 41 41 40 40 40 40 40 40 39 39 39 39 38 38 37 37 36
61 61 61 60 60 60 59 59 59 58 58 58 58 57 57 57 56 56 55 55 54 53 53 53 52 52 51 51 52 51 51 50 50 51 50 50 50 49 49 49 48 48 48 48 47 46 45 44 42 42 41 41 40 40 39 39 39 39 39 38 39 39 39 39 39 38 38 37 37
61 61 61 60 60 60 59 59 59 58 58 58 57 57 57 57 56 56 55 55 54 53 53 52 52 51 51 51 51 51 51 50 50 50 50 50 50 49 49 49 48 48 47 47 46 45 44 42 41 41 40 39 39 39 38 38 38 38 38 38 38 39 39 39 39 38 38 38 38
61 61 61 60 60 60 59 59 58 58 58 57 57 57 57 56 56 56 55 54 53 53 52 51 51 51 51 51 51 51 50 49 49 50 50 49 49 49 49 48 48 47 47 47 45 44 42 41 40 39 39 38 38 38 38 37 37 37 37 37 38 38 39 39 38 38 39 39 38
60 60 60 60 60 59 58 58 58 58 57 57 57 57 57 56 56 55 55 54 53 52 52 51 51 51 51 51 51 51 50 49 49 49 50 49 50 50 49 48 47 47 47 45 43 42 40 39 39 38 38 37 37 37 37 37 37 36 37 37 38 38 39 39 39 39 39 39 39
60 60 60 59 59 59 58 58 57 57 57 57 57 56 56 56 56 55 55 54 54 53 53 52 51 50 51 51 51 51 50 50 49 49 49 49 49 49 49 48 47 46 45 42 40 39 38 36 37 37 37 36 37 36 36 36 36 36 36 36 37 37 38 39 39 39 39 39 38
60 60 59 59 59 58 58 57 57 56 56 56 56 56 56 56 55 55 54 54 54 53 53 52 51 51 50 49 50 50 49 49 49 48 48 48 48 48 48 47 46 45 43 38 38 38 37 36 36 35 35 35 36 36 36 36 36 36 36 36 36 36 37 37 38 39 39 39 38
60 59 59 59 58 58 57 57 56 56 56 56 56 56 56 55 55 55 54 54 53 53 53 52 51 50 48 49 49 48 48 48 47 47 47 47 47 47 47 46 46 44 42 37 37 37 37 37 36 35 34 34 34 34 34 35 35 36 36 36 36 36 36 36 37 37 38 38 38
59 58 58 58 58 57 57 56 56 56 55 55 55 55 55 55 55 54 54 54 53 53 52 51 51 48 47 48 48 48 47 47 47 47 47 46 46 46 46 45 45 44 40 36 36 36 36 36 36 35 34 33 33 33 33 34 34 35 36 36 36 36 36 36 36 37 37 37 38
58 58 58 57 57 57 56 56 55 55 55 55 55 55 55 55 55 54 54 53 53 52 51 50 50 49 48 48 47 47 47 47 47 46 46 46 46 46 46 45 45 43 39 36 36 36 36 36 36 35 35 33 32 33 33 33 34 35 35 36 36 36 37 36 36 36 36 37 37
58 57 57 56 56 56 55 55 55 55 55 55 54 54 54 54 54 53 53 53 52 51 50 50 49 49 48 47 47 47 47 47 46 46 45 45 46 46 46 45 45 41 37 36 37 37 37 36 36 36 35 34 32 32 32 33 34 35 35 36 36 37 37 37 37 36 36 36 36
57 57 56 56 55 55 55 54 54 54 54 54 54 54 53 53 53 53 52 52 51 51 50 50 49 49 48 48 47 47 47 47 46 46 45 45 45 46 46 45 44 40 36 36 37 37 37 36 36 35 35 34 33 32 32 33 33 34 35 36 37 37 37 37 37 37 36 36 36
57 56 55 55 55 54 54 54 54 54 54 53 53 53 53 52 52 52 51 51 51 50 50 50 49 49 48 48 48 48 47 47 47 46 46 45 45 45 45 45 46 41 36 36 37 37 36 36 36 35 35 34 32 32 32 32 33 34 35 36 37 37 37 37 37 37 36 36 35
56 56 55 54 54 54 54 54 54 53 53 53 53 52 52 51 51 51 51 50 50 50 50 49 49 49 49 49 48 48 48 48 47 47 46 46 45 45 44 45 46 41 35 36 37 37 36 36 36 35 35 34 32 31 32 32 33 34 36 37 37 37 37 37 36 37 37 36 35
56 55 54 54 54 53 53 53 53 52 52 52 52 51 51 51 50 50 50 50 50 50 49 49 48 48 49 49 49 49 49 48 48 47 46 46 45 44 44 43 46 41 35 36 36 36 36 36 35 35 34 33 32 31 32 32 34 35 36 37 37 38 38 38 37 37 36 36 35
55 54 54 53 53 53 53 52 52 51 51 51 50 50 50 50 50 50 50 49 49 49 49 49 49 49 49 49 49 49 48 48 48 47 47 46 45 44 44 43 45 41 35 36 36 36 36 35 35 35 34 33 32 31 32 33 35 36 37 37 37 37 37 37 37 37 37 36 35
54 54 53 53 53 52 52 52 52 51 50 50 50 49 49 50 50 50 49 49 49 49 49 49 49 49 49 50 49 49 48 47 46 46 46 46 45 44 43 43 45 40 35 36 36 36 35 35 35 34 34 32 31 32 33 34 35 36 37 37 37 37 37 37 37 37 36 36 35
54 53 52 52 52 52 52 52 52 51 50 49 49 49 49 49 50 50 50 49 49 49 50 49 49 49 49 49 49 48 47 47 46 45 45 45 44 43 42 43 44 40 35 36 36 35 35 35 35 34 33 32 31 32 33 34 35 35 36 36 36 36 37 36 36 36 36 35 35
54 53 52 51 52 52 52 51 51 50 49 49 49 49 49 49 50 50 50 49 50 50 49 49 49 49 49 49 49 48 48 47 46 45 44 43 43 42 42 42 44 40 35 35 35 35 35 35 34 34 33 31 31 32 33 34 34 34 35 35 35 35 36 35 35 35 35 35 35
54 53 52 52 52 52 51 50 49 49 49 48 49 49 49 50 50 50 50 49 50 50 49 49 49 49 49 49 49 48 48 47 46 44 43 43 42 42 42 42 44 40 35 34 35 35 35 35 34 34 33 31 31 32 32 33 33 33 34 34 34 35 35 34 34 34 34 34 35
54 53 53 52 51 51 51 50 49 49 48 49 49 49 50 50 50 50 50 50 50 50 49 49 49 49 49 48 48 47 47 47 45 44 43 43 42 42 41 41 42 39 35 34 35 35 35 35 34 34 33 30 30 31 32 32 32 32 33 33 33 33 34 33 33 33 33 34 37
54 53 52 52 51 51 51 51 50 49 49 49 49 50 50 50 50 50 50 50 50 50 50 49 49 49 48 46 46 46 45 45 45 44 43 42 42 42 41 40 41 38 35 33 35 35 35 35 34 34 33 30 30 31 31 31 31 31 31 32 32 32 32 33 33 33 33 33 36
53 52 52 51 51 51 51 51 51 50 49 49 50 50 50 50 50 50 50 50 50 50 50 49 49 49 48 45 45 44 44 43 44 44 43 42 42 41 40 39 40 38 36 34 35 35 35 35 35 34 33 30 30 30 31 31 31 30 31 32 32 32 31 31 32 32 33 33 33
MSLP
1022.68 1022.84 1022.96 1023.00 1023.12 1023.20 1023.28 1023.40 1023.52 1023.56 1023.64 1023.72 1023.84 1023.96 1024.12 1024.24 1024.40 1024.52 1024.68 1024.80 1024.96 1025.08 1025.20 1025.28 1025.40 1025.52 1025.64 1025.76 1025.84 1025.96 1026.12 1026.16 1026.20 1026.24 1026.28 1026.36 1026.40 1026.52 1026.56 1026.64 1026.68 1026.68 1026.68 1026.72 1026.76 1026.76 1026.80 1026.80 1026.80 1026.72 1026.64 1026.52 1026.52 1026.52 1026.48 1026.48 1026.52 1026.52 1026.56 1026.56 1026.60 1026.60 1026.64 1026.64 1026.64 1026.60 1026.56 1026.52 1026.44
1022.80 1022.96 1023.08 1023.16 1023.24 1023.32 1023.40 1023.52 1023.64 1023.72 1023.80 1023.88 1024.00 1024.12 1024.28 1024.40 1024.48 1024.60 1024.72 1024.88 1025.00 1025.16 1025.28 1025.40 1025.52 1025.64 1025.72 1025.80 1025.96 1026.04 1026.16 1026.28 1026.32 1026.32 1026.36 1026.40 1026.48 1026.52 1026.64 1026.68 1026.68 1026.72 1026.72 1026.76 1026.80 1026.84 1026.88 1026.88 1026.84 1026.76 1026.68 1026.60 1026.60 1026.60 1026.60 1026.60 1026.64 1026.68 1026.72 1026.72 1026.76 1026.76 1026.76 1026.76 1026.68 1026.68 1026.64 1026.60 1026.52
1022.84 1022.96 1023.04 1023.12 1023.20 1023.24 1023.40 1023.52 1023.68 1023.80 1023.92 1024.04 1024.16 1024.28 1024.40 1024.52 1024.64 1024.72 1024.80 1024.96 1025.12 1025.24 1025.40 1025.52 1025.68 1025.76 1025.84 1025.92 1026.00 1026.12 1026.24 1026.36 1026.40 1026.44 1026.48 1026.52 1026.52 1026.64 1026.68 1026.68 1026.76 1026.80 1026.80 1026.80 1026.84 1026.92 1026.96 1026.96 1026.88 1026.80 1026.68 1026.68 1026.68 1026.68 1026.68 1026.72 1026.80 1026.84 1026.88 1026.92 1026.92 1026.92 1026.88 1026.84 1026.80 1026.76 1026.76 1026.72 1026.68
1022.80 1022.88 1022.96 1023.00 1023.12 1023.24 1023.36 1023.48 1023.64 1023.80 1023.96 1024.12 1024.24 1024.40 1024.52 1024.60 1024.72 1024.80 1024.92 1025.00 1025.12 1025.36 1025.52 1025.68 1025.76 1025.84 1025.92 1025.96 1026.04 1026.16 1026.28 1026.40 1026.44 1026.48 1026.52 1026.52 1026.60 1026.68 1026.68 1026.72 1026.80 1026.80 1026.84 1026.88 1026.92 1026.96 1026.96 1026.96 1026.92 1026.80 1026.80 1026.80 1026.80 1026.80 1026.80 1026.84 1026.92 1026.96 1027.00 1027.04 1027.04 1027.04 1027.00 1026.96 1026.96 1026.92 1026.88 1026.84 1026.80
1022.76 1022.84 1022.96 1023.00 1023.12 1023.24 1023.40 1023.52 1023.68 1023.84 1023.96 1024.12 1024.24 1024.40 1024.56 1024.68 1024.80 1024.88 1024.96 1025.08 1025.24 1025.44 1025.64 1025.72 1025.80 1025.92 1025.96 1026.00 1026.08 1026.16 1026.24 1026.36 1026.44 1026.52 1026.52 1026.56 1026.64 1026.68 1026.76 1026.76 1026.80 1026.80 1026.88 1026.92 1026.96 1026.96 1027.00 1027.00 1026.96 1026.92 1026.88 1026.88 1026.92 1026.96 1026.96 1026.96 1027.04 1027.08 1027.12 1027.12 1027.12 1027.12 1027.12 1027.08 1027.04 1027.04 1027.00 1026.96 1026.96
1022.80 1022.96 1023.04 1023.12 1023.24 1023.36 1023.48 1023.60 1023.76 1023.92 1024.08 1024.16 1024.32 1024.48 1024.64 1024.76 1024.84 1024.96 1025.08 1025.16 1025.32 1025.48 1025.64 1025.80 1025.92 1025.96 1025.96 1025.96 1026.04 1026.12 1026.24 1026.32 1026.40 1026.48 1026.52 1026.56 1026.68 1026.68 1026.76 1026.76 1026.80 1026.84 1026.92 1026.96 1027.00 1027.04 1027.04 1027.04 1027.00 1027.00 1027.00 1027.00 1027.00 1027.04 1027.08 1027.08 1027.12 1027.20 1027.24 1027.24 1027.20 1027.16 1027.12 1027.12 1027.12 1027.12 1027.08 1027.00 1026.96
1022.80 1022.96 1023.04 1023.16 1023.28 1023.40 1023.56 1023.68 1023.84 1023.96 1024.12 1024.24 1024.40 1024.56 1024.72 1024.84 1024.96 1025.04 1025.12 1025.24 1025.32 1025.48 1025.64 1025.80 1025.88 1025.96 1025.96 1025.96 1026.04 1026.16 1026.24 1026.32 1026.40 1026.44 1026.48 1026.56 1026.68 1026.68 1026.72 1026.76 1026.80 1026.84 1026.92 1026.96 1027.04 1027.08 1027.12 1027.12 1027.12 1027.12 1027.12 1027.12 1027.12 1027.12 1027.16 1027.20 1027.24 1027.24 1027.24 1027.24 1027.24 1027.16 1027.12 1027.12 1027.12 1027.12 1027.08 1027.00 1026.96
1022.68 1022.84 1022.96 1023.12 1023.24 1023.40 1023.56 1023.68 1023.84 1023.96 1024.12 1024.24 1024.40 1024.60 1024.80 1024.88 1025.00 1025.12 1025.16 1025.24 1025.36 1025.48 1025.56 1025.68 1025.80 1025.84 1025.92 1025.96 1026.08 1026.16 1026.24 1026.32 1026.40 1026.44 1026.52 1026.56 1026.64 1026.68 1026.68 1026.72 1026.80 1026.80 1026.88 1026.96 1027.04 1027.12 1027.12 1027.12 1027.16 1027.20 1027.24 1027.24 1027.24 1027.24 1027.24 1027.24 1027.24 1027.28 1027.28 1027.24 1027.24 1027.16 1027.12 1027.12 1027.08 1027.08 1027.04 1027.00 1026.96
1022.64 1022.80 1022.96 1023.08 1023.24 1023.36 1023.52 1023.68 1023.80 1023.96 1024.08 1024.24 1024.40 1024.60 1024.80 1024.96 1025.04 1025.12 1025.20 1025.24 1025.40 1025.48 1025.52 1025.64 1025.72 1025.80 1025.88 1025.96 1026.04 1026.12 1026.24 1026.28 1026.36 1026.40 1026.44 1026.48 1026.52 1026.60 1026.64 1026.68 1026.76 1026.80 1026.88 1026.96 1027.08 1027.12 1027.20 1027.20 1027.24 1027.28 1027.28 1027.28 1027.28 1027.32 1027.32 1027.28 1027.28 1027.28 1027.28 1027.24 1027.24 1027.16 1027.12 1027.12 1027.08 1027.08 1027.04 1027.00 1026.96
1022.60 1022.80 1022.96 1023.08 1023.24 1023.36 1023.48 1023.64 1023.80 1023.92 1024.00 1024.16 1024.40 1024.60 1024.80 1024.96 1025.08 1025.16 1025.24 1025.28 1025.40 1025.44 1025.48 1025.52 1025.60 1025.72 1025.80 1025.92 1025.96 1026.04 1026.16 1026.24 1026.32 1026.40 1026.40 1026.40 1026.40 1026.48 1026.56 1026.68 1026.68 1026.80 1026.88 1026.96 1027.08 1027.12 1027.20 1027.24 1027.32 1027.36 1027.32 1027.32 1027.36 1027.36 1027.36 1027.28 1027.28 1027.28 1027.24 1027.20 1027.16 1027.16 1027.16 1027.12 1027.12 1027.08 1027.04 1027.00 1026.96
1022.56 1022.76 1022.92 1023.08 1023.24 1023.36 1023.48 1023.60 1023.72 1023.84 1023.96 1024.12 1024.32 1024.52 1024.72 1024.88 1024.96 1025.08 1025.12 1025.20 1025.28 1025.28 1025.32 1025.40 1025.48 1025.60 1025.72 1025.80 1025.88 1025.96 1026.08 1026.16 1026.24 1026.28 1026.32 1026.32 1026.36 1026.40 1026.52 1026.60 1026.68 1026.72 1026.80 1026.96 1027.04 1027.12 1027.20 1027.24 1027.32 1027.36 1027.40 1027.36 1027.40 1027.40 1027.36 1027.32 1027.28 1027.24 1027.24 1027.20 1027.16 1027.16 1027.16 1027.12 1027.12 1027.08 1027.04 1026.96 1026.96
1022.52 1022.68 1022.88 1023.04 1023.20 1023.32 1023.44 1023.56 1023.68 1023.80 1023.96 1024.04 1024.16 1024.36 1024.52 1024.64 1024.76 1024.88 1024.96 1025.08 1025.16 1025.16 1025.16 1025.24 1025.40 1025.52 1025.64 1025.76 1025.80 1025.88 1025.96 1026.04 1026.12 1026.16 1026.20 1026.20 1026.24 1026.32 1026.40 1026.52 1026.64 1026.68 1026.80 1026.92 1027.00 1027.12 1027.20 1027.24 1027.32 1027.40 1027.40 1027.40 1027.40 1027.40 1027.40 1027.28 1027.24 1027.24 1027.16 1027.16 1027.12 1027.12 1027.12 1027.12 1027.12 1027.08 1027.04 1026.96 1026.96
1022.52 1022.68 1022.84 1023.00 1023.16 1023.28 1023.40 1023.48 1023.56 1023.68 1023.80 1023.92 1024.04 1024.16 1024.28 1024.40 1024.52 1024.64 1024.80 1024.92 1025.04 1025.12 1025.16 1025.20 1025.24 1025.40 1025.52 1025.64 1025.72 1025.80 1025.88 1025.96 1026.00 1026.04 1026.08 1026.12 1026.16 1026.24 1026.32 1026.44 1026.52 1026.68 1026.76 1026.84 1026.96 1027.08 1027.12 1027.24 1027.28 1027.36 1027.40 1027.44 1027.44 1027.40 1027.36 1027.28 1027.24 1027.16 1027.12 1027.12 1027.12 1027.12 1027.12 1027.12 1027.12 1027.04 1027.00 1026.96 1026.96
1022.56 1022.68 1022.84 1022.96 1023.12 1023.24 1023.36 1023.40 1023.52 1023.60 1023.68 1023.80 1023.92 1024.00 1024.12 1024.24 1024.36 1024.52 1024.68 1024.80 1024.96 1025.08 1025.16 1025.20 1025.24 1025.28 1025.40 1025.52 1025.60 1025.68 1025.80 1025.84 1025.96 1025.96 1025.96 1026.00 1026.04 1026.12 1026.24 1026.40 1026.52 1026.60 1026.68 1026.80 1026.88 1026.96 1027.08 1027.16 1027.28 1027.40 1027.44 1027.48 1027.44 1027.40 1027.36 1027.24 1027.20 1027.12 1027.12 1027.12 1027.12 1027.12 1027.12 1027.08 1027.04 1027.00 1026.96 1026.96 1026.96
1022.56 1022.68 1022.84 1022.96 1023.12 1023.20 1023.28 1023.36 1023.44 1023.52 1023.60 1023.68 1023.80 1023.88 1024.00 1024.12 1024.28 1024.40 1024.56 1024.72 1024.84 1025.00 1025.12 1025.20 1025.20 1025.24 1025.24 1025.32 1025.48 1025.60 1025.68 1025.80 1025.84 1025.88 1025.92 1025.92 1025.96 1026.04 1026.16 1026.28 1026.40 1026.52 1026.60 1026.68 1026.80 1026.88 1026.96 1027.12 1027.24 1027.36 1027.44 1027.48 1027.48 1027.40 1027.36 1027.24 1027.20 1027.12 1027.08 1027.08 1027.08 1027.08 1027.04 1027.00 1027.00 1026.96 1026.96 1026.96 1026.96
1022.52 1022.68 1022.80 1022.96 1023.08 1023.16 1023.24 1023.28 1023.40 1023.44 1023.52 1023.60 1023.68 1023.80 1023.92 1024.04 1024.16 1024.36 1024.52 1024.64 1024.80 1024.96 1025.04 1025.12 1025.12 1025.16 1025.20 1025.24 1025.36 1025.48 1025.60 1025.72 1025.80 1025.80 1025.80 1025.84 1025.92 1025.96 1026.12 1026.24 1026.36 1026.48 1026.52 1026.64 1026.68 1026.80 1026.88 1027.04 1027.20 1027.32 1027.40 1027.44 1027.44 1027.40 1027.32 1027.24 1027.16 1027.12 1027.08 1027.04 1027.00 1027.00 1027.00 1026.96 1026.96 1026.96 1026.96 1026.92 1026.92
1022.44 1022.60 1022.72 1022.88 1023.00 1023.08 1023.12 1023.24 1023.32 1023.40 1023.44 1023.52 1023.60 1023.72 1023.80 1023.96 1024.12 1024.24 1024.44 1024.56 1024.72 1024.84 1024.96 1025.00 1025.04 1025.12 1025.12 1025.16 1025.24 1025.32 1025.48 1025.56 1025.68 1025.68 1025.72 1025.76 1025.84 1025.96 1026.08 1026.16 1026.28 1026.36 1026.44 1026.52 1026.60 1026.68 1026.80 1026.96 1027.16 1027.28 1027.36 1027.40 1027.40 1027.40 1027.28 1027.24 1027.16 1027.12 1027.08 1027.00 1026.96 1026.96 1026.96 1026.96 1026.92 1026.92 1026.92 1026.84 1026.84
1022.28 1022.44 1022.56 1022.68 1022.80 1022.92 1023.00 1023.12 1023.24 1023.28 1023.40 1023.48 1023.52 1023.68 1023.80 1023.88 1024.00 1024.16 1024.32 1024.44 1024.60 1024.72 1024.80 1024.92 1024.96 1025.04 1025.12 1025.12 1025.16 1025.24 1025.36 1025.44 1025.52 1025.60 1025.64 1025.68 1025.80 1025.92 1026.00 1026.12 1026.20 1026.24 1026.32 1026.40 1026.48 1026.60 1026.76 1026.96 1027.12 1027.24 1027.32 1027.40 1027.40 1027.36 1027.32 1027.24 1027.16 1027.12 1027.08 1027.00 1026.96 1026.96 1026.92 1026.88 1026.84 1026.84 1026.80 1026.80 1026.80
1022.12 1022.24 1022.40 1022.52 1022.64 1022.72 1022.84 1022.96 1023.08 1023.16 1023.28 1023.40 1023.52 1023.60 1023.72 1023.80 1023.92 1024.08 1024.20 1024.32 1024.44 1024.56 1024.68 1024.80 1024.88 1024.96 1025.04 1025.12 1025.16 1025.20 1025.24 1025.36 1025.44 1025.52 1025.56 1025.64 1025.72 1025.84 1025.96 1026.08 1026.12 1026.24 1026.28 1026.28 1026.36 1026.52 1026.68 1026.92 1027.12 1027.24 1027.28 1027.36 1027.40 1027.36 1027.32 1027.24 1027.20 1027.12 1027.08 1027.00 1026.96 1026.92 1026.84 1026.80 1026.76 1026.76 1026.76 1026.72 1026.68
1021.96 1022.08 1022.24 1022.36 1022.48 1022.56 1022.68 1022.84 1022.96 1023.08 1023.20 1023.28 1023.40 1023.52 1023.64 1023.72 1023.80 1023.96 1024.08 1024.20 1024.32 1024.44 1024.56 1024.68 1024.80 1024.88 1024.96 1025.04 1025.12 1025.12 1025.20 1025.24 1025.36 1025.40 1025.52 1025.60 1025.68 1025.80 1025.92 1025.96 1026.08 1026.12 1026.20 1026.20 1026.28 1026.48 1026.68 1026.96 1027.12 1027.20 1027.28 1027.36 1027.40 1027.40 1027.28 1027.24 1027.20 1027.12 1027.08 1027.00 1026.96 1026.88 1026.80 1026.76 1026.68 1026.68 1026.68 1026.64 1026.60
1021.84 1021.96 1022.08 1022.24 1022.36 1022.48 1022.60 1022.72 1022.84 1022.96 1023.08 1023.20 1023.32 1023.44 1023.56 1023.68 1023.72 1023.80 1023.96 1024.04 1024.16 1024.32 1024.44 1024.56 1024.68 1024.80 1024.88 1024.96 1025.04 1025.08 1025.12 1025.20 1025.28 1025.40 1025.48 1025.56 1025.68 1025.76 1025.84 1025.92 1025.96 1026.04 1026.08 1026.12 1026.24 1026.52 1026.76 1026.96 1027.12 1027.20 1027.24 1027.36 1027.40 1027.40 1027.28 1027.24 1027.20 1027.12 1027.04 1026.96 1026.92 1026.84 1026.76 1026.68 1026.68 1026.64 1026.60 1026.52 1026.48
1021.80 1021.88 1022.00 1022.16 1022.28 1022.40 1022.52 1022.68 1022.80 1022.92 1023.04 1023.16 1023.24 1023.40 1023.48 1023.56 1023.68 1023.72 1023.80 1023.88 1024.04 1024.24 1024.40 1024.48 1024.56 1024.68 1024.80 1024.88 1024.96 1024.96 1025.04 1025.12 1025.24 1025.32 1025.40 1025.52 1025.64 1025.68 1025.76 1025.84 1025.92 1025.96 1026.00 1026.08 1026.24 1026.56 1026.80 1027.00 1027.12 1027.16 1027.24 1027.36 1027.40 1027.40 1027.32 1027.28 1027.24 1027.12 1027.08 1026.96 1026.88 1026.80 1026.72 1026.64 1026.60 1026.56 1026.52 1026.44 1026.40
1021.76 1021.88 1022.00 1022.16 1022.32 1022.40 1022.52 1022.68 1022.76 1022.88 1023.00 1023.12 1023.24 1023.32 1023.40 1023.48 1023.56 1023.64 1023.68 1023.80 1023.92 1024.08 1024.24 1024.36 1024.48 1024.56 1024.68 1024.72 1024.80 1024.92 1024.96 1025.08 1025.16 1025.24 1025.36 1025.44 1025.52 1025.56 1025.64 1025.76 1025.84 1025.88 1025.96 1026.08 1026.40 1026.64 1026.84 1027.00 1027.08 1027.12 1027.24 1027.36 1027.40 1027.40 1027.36 1027.28 1027.24 1027.16 1027.08 1026.96 1026.88 1026.80 1026.68 1026.64 1026.56 1026.48 1026.40 1026.32 1026.24
1021.76 1021.88 1022.04 1022.20 1022.32 1022.44 1022.56 1022.68 1022.76 1022.84 1022.96 1023.04 1023.12 1023.20 1023.28 1023.36 1023.40 1023.52 1023.56 1023.64 1023.76 1023.88 1024.04 1024.16 1024.32 1024.44 1024.52 1024.64 1024.72 1024.80 1024.92 1025.00 1025.12 1025.16 1025.24 1025.32 1025.40 1025.48 1025.52 1025.68 1025.76 1025.80 1025.92 1026.24 1026.52 1026.72 1026.88 1026.96 1027.08 1027.12 1027.24 1027.32 1027.40 1027.40 1027.36 1027.28 1027.20 1027.12 1027.08 1026.96 1026.88 1026.80 1026.68 1026.60 1026.52 1026.40 1026.32 1026.24 1026.24
1021.68 1021.84 1022.04 1022.20 1022.36 1022.44 1022.52 1022.64 1022.72 1022.80 1022.88 1022.96 1023.04 1023.12 1023.20 1023.24 1023.32 1023.40 1023.44 1023.52 1023.60 1023.72 1023.84 1023.96 1024.08 1024.24 1024.40 1024.52 1024.64 1024.76 1024.84 1024.96 1025.04 1025.12 1025.24 1025.28 1025.36 1025.40 1025.48 1025.56 1025.68 1025.76 1026.00 1026.40 1026.64 1026.76 1026.84 1026.96 1027.00 1027.12 1027.24 1027.32 1027.40 1027.40 1027.36 1027.28 1027.20 1027.12 1027.04 1026.96 1026.88 1026.76 1026.64 1026.52 1026.40 1026.28 1026.20 1026.16 1026.16
1021.68 1021.80 1022.00 1022.16 1022.32 1022.44 1022.52 1022.60 1022.68 1022.72 1022.80 1022.88 1022.96 1023.04 1023.12 1023.16 1023.20 1023.24 1023.32 1023.40 1023.48 1023.52 1023.64 1023.76 1023.88 1024.00 1024.20 1024.36 1024.52 1024.64 1024.76 1024.92 1025.00 1025.12 1025.24 1025.28 1025.36 1025.40 1025.48 1025.56 1025.60 1025.76 1026.08 1026.44 1026.64 1026.72 1026.80 1026.88 1026.96 1027.08 1027.20 1027.28 1027.40 1027.40 1027.40 1027.28 1027.20 1027.08 1026.96 1026.92 1026.80 1026.68 1026.52 1026.44 1026.32 1026.20 1026.12 1026.08 1026.08
1021.64 1021.80 1021.96 1022.12 1022.28 1022.40 1022.48 1022.52 1022.60 1022.68 1022.72 1022.80 1022.88 1022.96 1022.96 1023.08 1023.12 1023.16 1023.20 1023.24 1023.32 1023.40 1023.48 1023.60 1023.68 1023.88 1024.04 1024.20 1024.36 1024.52 1024.64 1024.76 1024.84 1024.96 1025.08 1025.20 1025.28 1025.40 1025.44 1025.52 1025.56 1025.72 1026.12 1026.44 1026.56 1026.64 1026.68 1026.80 1026.88 1027.00 1027.12 1027.24 1027.32 1027.40 1027.40 1027.28 1027.20 1027.08 1026.96 1026.80 1026.72 1026.60 1026.44 1026.36 1026.24 1026.12 1026.08 1026.00 1026.00
1021.60 1021.76 1021.92 1022.08 1022.24 1022.36 1022.44 1022.52 1022.56 1022.60 1022.68 1022.72 1022.80 1022.84 1022.92 1022.96 1023.00 1023.04 1023.12 1023.12 1023.20 1023.24 1023.36 1023.44 1023.56 1023.68 1023.84 1024.04 1024.16 1024.28 1024.40 1024.52 1024.64 1024.72 1024.84 1025.00 1025.12 1025.24 1025.40 1025.52 1025.52 1025.72 1026.08 1026.36 1026.48 1026.52 1026.64 1026.68 1026.80 1026.92 1027.04 1027.16 1027.24 1027.28 1027.28 1027.24 1027.16 1027.00 1026.88 1026.72 1026.64 1026.48 1026.32 1026.24 1026.12 1026.04 1026.00 1025.96 1025.96
1021.56 1021.76 1021.92 1022.08 1022.24 1022.32 1022.40 1022.44 1022.52 1022.56 1022.64 1022.68 1022.80 1022.80 1022.88 1022.92 1022.96 1023.00 1023.04 1023.08 1023.12 1023.20 1023.28 1023.36 1023.40 1023.52 1023.68 1023.80 1023.96 1024.12 1024.20 1024.28 1024.40 1024.52 1024.68 1024.80 1024.96 1025.12 1025.24 1025.40 1025.52 1025.84 1026.12 1026.28 1026.40 1026.48 1026.52 1026.64 1026.72 1026.84 1026.96 1027.08 1027.16 1027.24 1027.24 1027.20 1027.12 1026.96 1026.80 1026.68 1026.56 1026.40 1026.24 1026.12 1026.08 1026.00 1025.96 1025.92 1025.92
1021.52 1021.72 1021.88 1022.04 1022.16 1022.24 1022.36 1022.40 1022.48 1022.52 1022.60 1022.64 1022.72 1022.80 1022.84 1022.88 1022.96 1022.96 1022.96 1023.00 1023.08 1023.12 1023.16 1023.20 1023.24 1023.40 1023.52 1023.64 1023.76 1023.84 1024.00 1024.12 1024.24 1024.40 1024.52 1024.68 1024.84 1024.96 1025.12 1025.28 1025.44 1025.80 1026.16 1026.24 1026.32 1026.40 1026.48 1026.56 1026.68 1026.80 1026.88 1026.96 1027.08 1027.12 1027.12 1027.12 1027.04 1026.92 1026.76 1026.60 1026.48 1026.28 1026.12 1026.00 1025.96 1025.92 1025.88 1025.84 1025.84
1021.52 1021.68 1021.84 1021.96 1022.12 1022.24 1022.28 1022.36 1022.40 1022.44 1022.52 1022.60 1022.68 1022.72 1022.80 1022.80 1022.84 1022.88 1022.92 1022.96 1023.00 1023.04 1023.08 1023.12 1023.16 1023.24 1023.32 1023.40 1023.52 1023.60 1023.72 1023.88 1024.08 1024.24 1024.40 1024.52 1024.68 1024.84 1024.96 1025.12 1025.24 1025.64 1026.08 1026.16 1026.24 1026.32 1026.40 1026.52 1026.64 1026.72 1026.80 1026.88 1026.96 1027.00 1027.04 1027.04 1026.96 1026.84 1026.68 1026.52 1026.36 1026.16 1026.04 1025.92 1025.84 1025.80 1025.80 1025.80 1025.80
1021.52 1021.68 1021.80 1021.96 1022.08 1022.16 1022.24 1022.24 1022.32 1022.40 1022.44 1022.52 1022.56 1022.64 1022.72 1022.76 1022.80 1022.80 1022.80 1022.88 1022.96 1022.96 1023.04 1023.08 1023.12 1023.12 1023.16 1023.24 1023.24 1023.36 1023.52 1023.64 1023.80 1024.04 1024.20 1024.40 1024.52 1024.68 1024.84 1024.96 1025.04 1025.44 1025.92 1026.08 1026.16 1026.24 1026.36 1026.44 1026.52 1026.64 1026.68 1026.76 1026.84 1026.92 1026.96 1026.96 1026.84 1026.68 1026.52 1026.36 1026.12 1025.96 1025.88 1025.80 1025.76 1025.72 1025.72 1025.72 1025.76
1021.48 1021.64 1021.76 1021.88 1021.96 1022.08 1022.12 1022.20 1022.24 1022.28 1022.40 1022.44 1022.52 1022.60 1022.68 1022.68 1022.72 1022.72 1022.76 1022.80 1022.84 1022.92 1022.96 1023.00 1023.04 1023.08 1023.08 1023.08 1023.04 1023.12 1023.24 1023.48 1023.68 1023.88 1024.08 1024.24 1024.40 1024.56 1024.72 1024.88 1024.88 1025.28 1025.80 1025.96 1026.08 1026.16 1026.24 1026.40 1026.48 1026.52 1026.56 1026.64 1026.72 1026.80 1026.84 1026.80 1026.68 1026.52 1026.32 1026.12 1025.96 1025.80 1025.72 1025.68 1025.68 1025.68 1025.68 1025.68 1025.68
1021.48 1021.60 1021.72 1021.84 1021.92 1021.96 1022.08 1022.12 1022.16 1022.24 1022.32 1022.40 1022.44 1022.52 1022.56 1022.56 1022.60 1022.64 1022.68 1022.68 1022.72 1022.76 1022.80 1022.80 1022.84 1022.88 1022.88 1022.88 1022.88 1022.96 1023.08 1023.32 1023.56 1023.80 1023.96 1024.12 1024.24 1024.44 1024.68 1024.80 1024.84 1025.24 1025.68 1025.84 1025.96 1026.08 1026.20 1026.32 1026.40 1026.44 1026.48 1026.52 1026.60 1026.68 1026.68 1026.64 1026.52 1026.32 1026.12 1025.96 1025.80 1025.72 1025.64 1025.60 1025.60 1025.56 1025.56 1025.60 1025.60
1021.44 1021.60 1021.68 1021.76 1021.84 1021.92 1021.96 1022.00 1022.08 1022.16 1022.24 1022.24 1022.32 1022.40 1022.44 1022.44 1022.48 1022.52 1022.52 1022.52 1022.52 1022.56 1022.60 1022.60 1022.60 1022.60 1022.64 1022.68 1022.72 1022.80 1022.96 1023.24 1023.44 1023.64 1023.80 1023.96 1024.12 1024.40 1024.64 1024.80 1024.84 1025.20 1025.56 1025.76 1025.92 1026.04 1026.20 1026.28 1026.32 1026.32 1026.32 1026.40 1026.48 1026.52 1026.52 1026.48 1026.36 1026.16 1026.00 1025.88 1025.80 1025.68 1025.64 1025.56 1025.52 1025.52 1025.52 1025.52 1025.52
1021.40 1021.52 1021.64 1021.72 1021.80 1021.84 1021.92 1021.96 1022.00 1022.08 1022.12 1022.16 1022.24 1022.24 1022.32 1022.32 1022.32 1022.32 1022.36 1022.36 1022.36 1022.40 1022.36 1022.36 1022.36 1022.40 1022.40 1022.44 1022.52 1022.68 1022.88 1023.12 1023.32 1023.52 1023.68 1023.84 1024.08 1024.32 1024.52 1024.68 1024.80 1025.12 1025.52 1025.68 1025.88 1026.04 1026.16 1026.24 1026.20 1026.16 1026.20 1026.24 1026.36 1026.40 1026.40 1026.32 1026.24 1026.12 1025.96 1025.88 1025.80 1025.68 1025.60 1025.52 1025.48 1025.44 1025.44 1025.44 1025.40
1021.36 1021.52 1021.60 1021.68 1021.76 1021.80 1021.84 1021.88 1021.96 1021.96 1022.04 1022.08 1022.12 1022.16 1022.20 1022.20 1022.20 1022.16 1022.16 1022.16 1022.16 1022.16 1022.16 1022.16 1022.16 1022.20 1022.24 1022.24 1022.40 1022.52 1022.72 1022.92 1023.12 1023.36 1023.56 1023.80 1024.00 1024.24 1024.40 1024.60 1024.68 1025.04 1025.48 1025.68 1025.80 1025.96 1026.08 1026.12 1026.04 1026.00 1026.04 1026.12 1026.24 1026.28 1026.28 1026.24 1026.16 1026.04 1025.96 1025.88 1025.76 1025.64 1025.52 1025.52 1025.48 1025.44 1025.40 1025.40 1025.36
1021.32 1021.44 1021.56 1021.68 1021.72 1021.76 1021.80 1021.84 1021.84 1021.88 1021.96 1021.96 1022.04 1022.04 1022.04 1022.00 1022.00 1022.00 1021.96 1021.96 1021.96 1021.96 1021.96 1021.96 1022.00 1022.04 1022.08 1022.16 1022.28 1022.44 1022.60 1022.76 1023.00 1023.24 1023.52 1023.72 1023.88 1024.08 1024.28 1024.44 1024.52 1024.92 1025.40 1025.60 1025.72 1025.80 1025.92 1025.92 1025.88 1025.84 1025.92 1026.04 1026.20 1026.24 1026.24 1026.20 1026.12 1026.00 1025.92 1025.80 1025.72 1025.60 1025.52 1025.48 1025.44 1025.44 1025.40 1025.32 1025.24
1021.24 1021.40 1021.52 1021.64 1021.72 1021.76 1021.76 1021.80 1021.80 1021.80 1021.84 1021.88 1021.88 1021.92 1021.88 1021.88 1021.84 1021.84 1021.80 1021.80 1021.80 1021.80 1021.80 1021.84 1021.84 1021.88 1021.96 1022.12 1022.28 1022.44 1022.56 1022.72 1022.96 1023.20 1023.44 1023.64 1023.76 1023.92 1024.12 1024.32 1024.40 1024.76 1025.24 1025.48 1025.56 1025.64 1025.68 1025.68 1025.72 1025.76 1025.84 1026.00 1026.12 1026.24 1026.20 1026.12 1026.08 1025.96 1025.88 1025.80 1025.68 1025.60 1025.52 1025.48 1025.44 1025.44 1025.40 1025.28 1025.12
1021.24 1021.40 1021.52 1021.64 1021.68 1021.76 1021.76 1021.76 1021.72 1021.72 1021.76 1021.76 1021.76 1021.76 1021.76 1021.72 1021.68 1021.68 1021.68 1021.68 1021.68 1021.68 1021.68 1021.68 1021.72 1021.80 1021.92 1022.08 1022.24 1022.40 1022.56 1022.76 1022.96 1023.12 1023.36 1023.52 1023.64 1023.80 1023.96 1024.20 1024.28 1024.60 1025.00 1025.32 1025.36 1025.40 1025.48 1025.52 1025.60 1025.68 1025.80 1025.96 1026.08 1026.12 1026.12 1026.12 1026.04 1025.96 1025.84 1025.72 1025.64 1025.56 1025.52 1025.52 1025.52 1025.44 1025.36 1025.28 1025.12
1021.28 1021.40 1021.48 1021.60 1021.68 1021.72 1021.72 1021.68 1021.68 1021.64 1021.64 1021.64 1021.64 1021.64 1021.60 1021.56 1021.52 1021.52 1021.52 1021.52 1021.52 1021.52 1021.52 1021.52 1021.60 1021.68 1021.84 1022.04 1022.20 1022.36 1022.52 1022.72 1022.92 1023.04 1023.20 1023.36 1023.52 1023.68 1023.84 1024.04 1024.20 1024.44 1024.76 1025.08 1025.16 1025.24 1025.28 1025.40 1025.48 1025.52 1025.68 1025.88 1025.96 1026.00 1026.04 1026.04 1026.00 1025.92 1025.80 1025.68 1025.64 1025.60 1025.60 1025.60 1025.52 1025.40 1025.32 1025.24 1025.12
Wind_Speed
5 4 3 3 3 3 3 2 2 2 2 3 3 3 3 3 3 3 2 2 2 2 2 3 3 3 3 4 4 4 4 4 3 3 3 4 4 4 4 4 4 4 4 4 4 4 4 5 4 3 3 3 3 3 4 4 4 5 5 6 5 5 5 6 6 6 7 7 5
5 4 3 2 2 2 2 2 2 2 2 3 3 3 3 3 2 2 3 3 2 3 3 3 3 3 3 4 4 4 4 3 3 3 3 4 4 4 4 4 4 4 4 4 4 4 4 4 4 3 3 3 3 3 4 4 5 5 6 7 5 5 5 5 5 6 6 6 6
5 5 4 4 3 3 3 3 3 3 3 3 3 3 3 2 2 2 2 2 3 3 3 3 3 3 3 3 3 3 3 3 3 3 3 3 3 4 4 3 4 4 4 4 4 4 4 4 4 3 3 3 3 4 4 4 5 5 5 6 5 4 4 4 5 5 5 5 6
5 5 4 4 4 4 3 3 3 3 3 3 3 3 3 2 2 2 2 2 3 3 3 3 3 2 2 1 2 3 3 2 2 2 2 2 3 3 3 3 3 4 4 4 4 4 4 5 3 3 3 4 4 4 4 4 5 4 4 4 4 4 4 4 4 4 4 5 5
4 4 4 4 4 4 4 3 3 3 3 3 3 3 3 2 2 2 2 2 3 3 3 3 2 1 1 1 1 2 2 2 1 1 1 2 2 3 3 3 3 3 3 4 4 5 5 5 3 3 3 4 3 3 4 5 5 4 4 3 3 3 3 4 4 4 4 4 4
4 4 4 4 4 4 4 3 3 3 3 2 3 3 3 3 2 2 2 2 3 4 4 3 1 0 0 1 1 1 1 1 1 1 1 2 2 2 2 2 3 3 3 4 4 5 5 4 3 3 3 3 3 4 4 5 5 4 4 3 3 3 3 3 3 3 4 4 5
6 6 5 5 5 4 4 3 3 3 2 3 4 4 4 3 3 2 2 2 2 3 3 2 1 1 1 0 1 1 1 1 1 1 1 1 1 1 2 2 3 3 4 4 4 4 4 4 3 3 3 3 3 4 5 5 4 4 4 4 3 3 3 4 3 3 4 5 6
7 7 7 6 6 5 4 4 3 3 3 3 4 4 4 3 2 2 1 1 1 2 2 2 2 1 0 0 0 1 1 1 1 1 1 1 1 1 1 2 3 3 4 4 4 4 4 4 3 3 3 3 3 3 4 5 5 4 4 4 3 3 3 3 3 4 4 6 6
6 6 6 6 5 5 4 4 4 3 3 3 4 4 4 3 2 1 1 1 1 1 1 2 2 1 1 1 1 1 0 0 1 1 1 1 1 0 1 2 2 3 3 4 4 4 4 3 3 3 3 3 3 3 4 5 5 5 4 4 4 4 4 4 4 5 5 6 6
6 6 5 5 4 4 4 4 3 3 3 3 5 5 4 3 1 1 1 1 0 1 1 2 2 2 2 1 1 1 1 1 1 1 2 2 1 0 1 1 2 3 3 4 4 4 4 3 3 3 3 3 4 4 5 5 5 5 4 3 4 4 5 5 5 6 6 6 6
7 6 6 5 5 4 4 3 3 3 3 3 4 5 5 4 4 3 2 1 1 2 2 2 2 2 2 1 1 1 1 1 1 2 2 2 1 1 1 1 2 3 3 4 3 3 3 3 3 4 4 4 4 4 5 5 5 5 5 4 4 5 5 6 6 5 5 6 6
6 6 6 5 5 4 4 3 3 3 3 4 4 4 5 5 5 4 3 2 1 1 1 1 2 2 2 1 1 1 1 2 2 2 3 3 2 1 0 1 2 3 3 3 3 3 2 3 3 4 5 5 4 4 5 5 5 5 5 5 5 5 5 6 6 5 5 5 6
5 5 5 5 5 4 3 3 3 3 3 3 3 4 4 4 4 4 3 2 0 1 2 1 1 2 2 2 2 2 2 2 2 3 3 2 2 1 0 1 2 2 3 3 2 2 2 3 4 5 5 5 5 5 5 6 5 5 5 5 5 5 5 6 6 6 6 6 6
4 4 5 5 4 4 3 3 3 3 3 3 3 3 3 2 2 2 2 1 0 1 2 2 1 1 2 3 3 2 2 2 3 3 3 3 2 1 0 1 1 2 2 2 2 2 2 3 4 4 5 5 5 6 6 6 6 5 5 5 5 5 5 6 6 6 6 6 6
4 4 4 4 4 3 3 3 2 2 3 3 3 3 2 2 2 2 2 1 1 0 1 2 2 2 2 3 3 3 3 3 3 3 3 3 2 1 0 0 1 1 2 1 1 1 2 3 4 4 5 5 6 6 6 6 6 5 5 5 5 5 6 6 6 6 6 6 6
4 4 4 4 4 3 3 3 2 2 2 2 2 2 2 2 2 2 2 2 1 1 1 2 2 2 2 3 3 4 3 3 4 4 4 3 2 1 1 1 1 1 1 2 1 1 2 4 4 4 5 5 6 6 6 6 6 6 6 6 6 6 6 6 6 6 6 6 6
5 5 5 5 5 4 4 3 3 2 2 2 2 1 1 1 1 2 2 2 2 2 2 3 2 2 2 2 3 3 4 4 4 4 4 3 2 1 1 1 1 1 1 2 1 1 2 4 4 4 5 5 6 6 6 7 6 6 6 7 6 6 6 6 6 6 6 6 6
6 6 6 6 5 5 4 4 3 3 3 2 2 1 1 1 1 2 2 2 2 2 3 3 2 2 3 3 3 3 3 4 4 4 3 3 2 2 1 1 1 1 2 2 1 1 3 4 4 4 4 5 5 6 6 6 6 6 6 6 6 6 6 6 6 5 5 6 6
6 6 6 6 5 5 4 4 3 3 3 3 2 2 2 2 2 2 2 3 3 3 3 3 3 2 3 4 4 3 3 3 4 4 3 3 2 2 2 2 2 2 2 3 1 2 3 4 4 4 4 5 5 5 5 5 5 6 6 6 6 6 6 6 6 5 5 6 6
6 6 5 5 4 4 4 4 3 3 3 3 3 3 3 3 3 3 3 4 3 3 3 3 3 3 3 4 4 4 3 3 3 4 4 3 3 2 2 2 2 2 3 3 1 3 4 4 4 4 4 5 5 5 5 5 5 6 6 6 6 6 6 6 6 6 6 6 6
5 4 4 3 3 3 3 3 2 2 2 2 3 3 3 3 4 4 4 4 3 3 3 3 3 3 3 4 5 5 4 3 3 3 3 3 3 3 3 3 2 3 3 2 2 4 5 4 4 4 4 4 5 5 5 5 5 6 6 5 6 6 6 6 6 6 6 6 6
4 3 3 3 2 2 2 1 1 2 2 2 3 3 3 4 4 4 4 4 3 3 3 3 3 3 4 4 5 4 4 3 3 3 3 3 3 3 3 2 2 3 3 1 3 5 5 4 3 3 3 3 4 5 5 5 5 5 6 6 6 7 7 6 6 6 6 6 6
3 3 2 2 1 1 1 1 1 2 3 3 3 4 4 4 4 4 4 4 4 4 4 3 3 4 4 4 4 4 4 3 3 3 3 4 4 4 4 3 3 3 2 2 4 5 4 3 3 3 3 3 4 5 5 5 5 5 6 6 7 7 7 7 6 6 6 6 5
3 2 2 1 1 1 1 2 2 3 3 4 4 4 4 4 5 5 4 4 4 4 4 4 4 4 4 4 4 4 4 4 4 4 4 4 4 4 4 3 3 2 1 5 5 5 4 3 3 2 2 2 3 4 5 5 5 5 6 6 7 7 7 7 6 6 6 6 5
3 2 2 1 2 2 2 2 3 3 4 4 4 4 4 5 5 5 5 5 5 5 5 5 4 4 4 4 4 4 4 4 4 4 4 4 5 4 4 3 2 0 3 6 7 7 6 4 3 2 1 1 2 3 4 5 5 5 5 6 6 6 6 6 6 6 6 5 5
3 3 2 2 2 3 3 3 3 3 4 4 4 4 4 5 5 5 5 5 5 5 5 5 4 4 4 4 4 4 4 3 4 4 4 5 5 5 4 3 2 1 5 7 9 9 8 7 6 4 2 0 2 3 4 4 5 5 6 6 6 6 6 6 6 5 5 5 5
3 3 2 2 3 3 3 3 3 3 3 4 4 4 5 5 4 5 5 5 5 4 4 4 4 4 4 4 5 5 5 4 4 5 5 5 5 5 5 4 2 2 6 10 10 10 9 8 7 5 3 1 1 2 3 4 5 5 6 6 6 6 6 6 6 5 5 5 5
3 2 2 2 3 3 3 3 3 3 4 4 4 4 4 5 5 5 5 5 5 4 3 3 3 3 4 4 5 6 6 6 5 5 5 5 5 5 5 4 2 3 8 12 12 11 10 9 8 6 4 2 1 2 3 4 5 5 5 5 5 6 6 6 5 5 5 5 5
3 2 2 3 3 3 3 3 3 4 4 4 4 4 4 5 5 5 5 5 5 4 3 3 3 3 4 4 5 6 6 6 5 5 5 5 5 5 4 5 2 5 10 14 12 11 10 9 8 7 5 3 2 2 3 3 4 4 4 5 5 5 5 5 5 5 4 4 4
2 2 2 3 3 3 3 3 4 4 4 3 4 4 5 5 5 5 5 5 5 4 4 3 3 3 4 5 5 6 6 6 5 5 5 5 5 5 4 5 3 6 11 14 12 11 10 9 8 7 6 5 3 2 2 3 3 4 4 5 5 6 6 6 5 5 5 4 4
2 2 3 3 3 4 4 4 4 4 3 3 4 4 5 5 5 5 5 4 4 4 4 3 4 5 5 5 5 6 6 6 6 5 5 5 5 5 5 7 4 7 11 13 12 11 10 9 8 7 6 5 3 2 2 3 4 4 5 5 6 7 6 5 5 5 5 5 5
3 3 3 3 4 4 4 4 4 3 4 4 4 5 5 5 5 4 4 4 4 4 4 4 5 5 6 5 5 6 6 6 6 6 6 5 5 5 5 7 4 8 12 14 12 11 10 9 8 8 7 6 3 2 3 4 5 5 6 7 7 7 6 5 4 5 5 5 5
3 3 3 4 4 4 4 4 3 3 3 4 4 5 5 5 5 4 4 4 4 4 4 5 6 6 6 6 6 6 6 6 6 6 6 5 5 5 5 6 3 8 13 14 12 11 10 9 9 8 7 5 3 3 3 4 5 6 6 6 6 6 6 5 5 5 5 5 5
3 3 4 4 4 4 4 4 3 3 4 4 5 5 5 5 5 5 5 4 4 4 5 5 5 6 6 6 5 5 4 4 5 6 6 5 5 5 4 4 2 8 14 14 12 11 10 10 9 8 7 5 3 3 4 5 6 6 6 6 6 5 5 5 5 5 5 5 4
4 4 4 4 4 4 4 4 4 4 4 4 5 5 5 5 5 5 5 4 4 5 5 5 5 5 5 6 5 5 4 4 5 5 5 5 4 4 3 3 2 9 15 14 12 11 11 10 9 8 6 4 2 2 4 5 6 6 6 6 6 6 5 5 5 4 4 5 5
4 4 4 4 4 4 4 4 5 5 5 5 5 5 5 5 5 5 5 5 5 5 5 5 5 5 5 5 5 4 3 4 5 5 5 5 4 4 4 4 2 9 15 14 13 12 11 11 9 8 6 3 2 2 3 4 4 5 6 6 6 6 5 5 4 4 4 4 4
4 4 3 3 4 4 5 5 5 5 5 5 5 5 5 5 5 5 5 4 5 5 5 5 5 5 5 4 4 3 3 4 4 5 5 5 5 5 4 5 4 8 14 14 13 12 12 10 9 7 5 3 1 2 3 4 4 4 5 5 5 5 5 4 4 4 4 5 4
3 3 3 3 4 4 5 5 5 5 5 5 5 5 5 5 5 5 5 4 5 5 5 5 5 4 4 3 2 2 2 3 4 5 5 5 5 5 5 5 4 7 13 15 14 13 12 10 9 7 5 2 1 2 3 3 3 4 4 4 4 4 4 3 3 4 4 5 5
2 2 3 3 4 4 5 5 5 5 5 5 5 5 5 5 4 4 4 4 4 5 5 5 4 4 3 3 1 1 2 3 4 5 5 5 5 5 5 5 5 7 12 15 14 13 11 10 9 8 6 3 1 2 3 3 3 4 4 4 4 4 3 3 3 4 4 5 7
1 2 3 4 4 5 5 6 6 5 5 5 5 6 5 5 4 4 4 4 5 5 5 4 4 4 3 1 1 1 2 3 4 5 5 5 5 5 5 5 5 7 11 14 14 13 11 10 9 8 6 3 2 2 3 3 3 4 4 4 3 3 3 3 4 4 4 5 6
2 2 3 4 5 5 6 7 7 6 5 5 5 5 5 4 4 4 4 4 5 5 4 4 4 3 2 0 1 2 3 3 4 5 5 5 5 5 5 5 5 6 9 12 13 13 11 10 10 9 7 4 2 2 2 3 3 4 4 4 3 3 3 3 4 4 4 4 5
Wind_Direction
86 80 73 69 71 72 72 66 55 53 59 68 72 71 68 66 71 73 75 72 66 59 55 51 50 48 48 51 56 55 50 40 35 36 42 48 48 42 32 25 18 16 15 15 13 12 7 356 345 334 327 329 341 351 356 359 1 360 358 356 355 352 350 348 343 340 338 336 335
101 100 99 98 100 101 98 96 90 79 73 71 69 67 64 60 60 63 69 73 70 63 55 49 48 45 44 49 60 62 57 41 26 23 30 40 42 38 32 24 16 15 15 16 15 13 6 353 341 332 328 335 350 357 1 4 5 2 359 357 355 352 349 344 341 339 337 336 337
126 130 134 137 135 130 126 124 119 110 100 91 85 80 73 66 60 60 65 73 75 69 60 49 46 45 44 46 66 73 69 53 29 20 23 34 35 34 30 22 16 16 17 19 17 14 5 352 338 330 333 347 357 360 3 6 7 4 360 357 354 350 346 341 340 340 341 341 340
134 135 133 130 124 119 114 113 115 112 109 106 102 95 89 81 70 66 66 74 78 74 66 52 49 49 50 52 73 83 84 75 45 24 21 32 34 31 28 20 17 18 20 21 19 14 6 352 339 335 344 356 359 1 4 6 7 5 360 355 350 346 342 340 341 343 343 340 338
118 112 104 99 96 92 89 92 99 104 108 112 107 102 94 85 73 63 60 69 79 80 74 60 50 48 61 100 92 93 97 99 92 53 28 36 36 30 25 19 19 20 22 23 21 15 6 354 343 344 354 360 1 2 4 6 5 3 358 351 344 340 338 337 340 341 339 334 331
114 107 101 97 95 91 87 88 95 102 107 109 101 93 84 72 62 52 48 57 83 91 92 83 73 51 235 169 112 96 87 82 74 50 35 39 35 28 20 18 21 25 27 26 21 15 7 357 350 353 360 2 358 360 3 5 2 358 351 343 337 334 334 336 335 332 328 322 320
135 132 130 126 120 115 110 110 111 116 118 111 99 88 80 69 63 55 51 53 85 102 112 124 151 190 233 280 77 70 57 36 22 18 23 37 29 18 15 18 22 27 30 29 23 16 8 1 357 359 2 1 356 357 359 1 357 350 342 335 331 328 328 329 326 322 319 316 318
143 141 140 137 134 131 131 134 139 142 140 128 110 98 88 79 74 70 65 61 69 95 122 145 162 175 199 352 44 58 44 6 357 357 3 18 360 3 14 24 24 29 33 34 25 16 10 6 4 2 1 358 353 352 353 352 348 341 334 326 324 323 324 323 322 320 319 318 319
140 138 137 133 132 134 139 144 150 153 150 136 117 107 98 88 86 84 70 62 51 58 135 169 170 174 187 229 220 205 204 302 323 319 309 280 271 322 25 33 27 31 36 39 29 18 11 10 7 3 359 355 350 347 345 343 338 332 326 321 319 322 323 324 325 325 323 321 320
137 135 134 131 131 135 141 147 153 157 153 138 122 115 111 113 139 155 135 89 101 214 218 198 184 184 197 222 222 213 203 210 278 287 282 267 258 278 32 42 29 31 36 42 33 22 13 12 5 359 356 352 347 343 339 334 329 325 322 319 322 324 326 328 328 327 324 320 321
139 140 140 137 138 142 149 157 161 164 162 153 141 139 144 158 172 176 173 168 201 222 221 202 188 191 208 236 231 219 206 201 234 257 264 264 258 271 28 42 30 29 33 39 35 26 16 9 1 356 354 352 347 340 333 326 321 319 319 320 325 328 329 329 328 325 323 320 323
141 144 144 142 145 151 162 171 172 173 173 173 167 166 167 173 175 173 172 183 214 253 261 220 189 190 205 228 230 221 215 220 235 247 256 261 264 278 12 34 30 31 33 38 37 28 16 6 1 357 354 352 346 336 326 320 317 316 318 323 328 330 328 326 324 323 322 324 326
143 146 147 146 150 159 171 181 181 181 182 183 183 182 182 180 171 166 166 175 192 334 334 317 228 200 201 214 217 216 221 234 248 254 257 260 262 271 337 23 29 33 36 41 37 28 14 8 5 1 356 351 343 332 322 318 315 316 320 325 327 326 324 322 321 321 323 326 327
146 150 153 153 158 166 176 186 189 191 195 197 193 190 189 186 167 157 154 156 89 357 337 319 287 222 204 207 211 215 225 244 260 263 263 259 254 253 281 11 25 32 36 41 35 25 17 19 16 9 360 350 340 330 322 317 316 317 320 323 324 322 321 320 321 322 324 326 325
153 158 161 163 166 172 181 190 193 200 206 209 199 190 184 185 166 154 150 154 145 316 309 295 278 245 218 205 207 211 223 243 257 262 263 259 254 249 259 344 15 22 21 14 18 29 35 37 29 18 4 350 339 329 322 319 319 320 321 323 322 321 321 320 322 323 323 324 323
162 169 174 176 179 182 188 194 196 204 211 215 206 193 185 183 170 157 152 160 171 204 246 263 267 259 237 210 203 205 214 229 243 251 255 256 255 260 280 322 357 357 349 334 339 31 56 57 43 25 7 350 338 329 324 321 321 322 322 322 322 322 320 320 320 320 320 320 319
174 182 187 190 190 193 194 197 199 205 214 222 221 213 200 193 176 162 156 164 182 208 233 252 263 270 265 243 213 204 207 218 231 240 248 254 258 268 288 309 327 329 320 308 312 16 54 58 45 27 7 350 339 331 326 323 323 322 322 322 321 319 317 316 316 316 316 316 314
184 191 196 198 199 199 199 200 203 210 220 229 233 233 227 219 204 185 176 178 192 213 230 245 256 269 275 272 248 224 212 216 227 237 246 253 260 270 283 292 300 302 296 290 304 23 52 50 37 23 6 351 339 331 325 322 320 319 319 319 317 315 313 311 311 312 314 314 311
190 196 201 203 203 202 202 202 207 214 221 229 233 237 239 239 229 218 208 203 203 210 220 232 242 255 266 271 264 250 231 223 231 239 245 250 255 263 269 273 282 285 287 287 314 46 60 52 37 21 6 352 337 328 321 318 318 317 317 315 313 311 309 309 311 312 312 312 309
196 200 204 204 204 204 205 206 210 216 221 225 231 238 243 246 241 235 228 223 212 207 208 219 231 244 256 263 263 255 242 229 232 237 243 246 249 253 258 264 273 280 285 288 357 62 66 56 40 24 8 351 334 323 318 317 316 316 315 313 310 308 308 310 312 313 312 309 307
201 202 203 204 205 208 212 213 217 223 228 233 237 244 248 251 249 245 239 231 216 207 206 214 228 240 251 257 259 255 246 231 228 233 240 246 249 252 255 260 270 278 282 291 64 77 74 62 45 29 13 350 330 320 316 317 317 315 313 310 309 308 309 311 313 312 309 306 307
200 200 201 203 208 215 224 231 237 241 244 246 248 250 251 252 251 248 241 229 214 207 208 216 226 236 246 251 254 253 247 232 223 227 235 242 248 248 248 246 258 269 277 309 88 90 87 73 55 38 17 348 327 318 316 317 315 312 311 309 309 310 311 311 310 307 305 303 308
195 194 196 201 209 223 248 259 256 254 252 251 250 249 249 249 250 248 241 226 211 206 208 213 220 229 238 246 251 251 248 238 229 227 231 238 243 244 241 232 247 262 281 71 91 95 93 83 67 48 23 348 325 317 315 315 312 310 309 308 309 310 309 308 305 303 302 304 312
191 189 187 192 214 237 250 256 255 253 251 250 248 248 249 249 251 251 246 236 224 217 213 211 211 217 225 237 246 251 253 251 247 245 246 248 249 247 244 236 248 259 70 88 98 104 105 97 82 62 34 349 324 315 312 310 307 306 306 306 306 305 303 301 299 299 301 306 317
190 190 191 202 224 237 245 249 250 251 251 252 252 252 252 253 254 254 253 248 239 230 224 220 215 210 210 217 230 239 247 253 257 261 264 267 264 259 252 244 245 150 93 102 116 120 119 115 106 92 60 353 318 310 306 302 301 301 301 300 299 297 295 294 294 296 301 310 322
188 191 200 214 232 242 247 249 251 253 255 257 257 257 257 256 256 257 256 255 249 241 232 226 219 209 201 201 210 217 225 232 240 250 258 265 266 263 260 254 247 123 108 121 131 131 128 124 120 114 105 9 307 302 299 296 297 296 296 295 292 290 289 289 292 297 305 315 324
186 191 204 221 239 247 253 254 258 260 261 263 264 263 263 263 262 262 262 262 258 251 240 228 214 201 192 196 205 210 213 214 218 224 232 242 251 255 257 258 254 138 124 137 141 140 137 134 132 133 134 160 283 290 292 291 292 292 292 291 289 288 287 288 294 301 311 319 324
185 193 209 231 245 253 259 264 267 268 270 272 273 274 275 274 274 272 271 270 268 263 253 233 214 200 193 196 203 207 210 211 212 215 219 227 235 241 244 250 256 136 131 145 148 147 144 142 143 144 147 160 239 272 279 283 286 289 290 290 290 289 290 292 299 306 312 318 322
188 199 218 238 249 256 262 267 269 272 274 277 280 283 283 283 281 279 276 274 271 268 260 245 224 208 201 200 202 205 207 210 212 214 217 221 225 228 232 245 226 135 136 150 152 151 149 149 149 152 158 172 204 254 273 279 284 287 290 291 290 290 292 294 300 307 312 316 321
192 207 224 240 250 256 260 263 264 268 270 274 277 279 279 279 277 276 275 273 272 269 264 256 241 226 215 208 204 204 204 206 207 211 215 218 219 216 220 239 195 146 145 157 155 154 152 152 155 160 168 179 198 237 264 275 281 285 287 287 286 286 288 292 301 307 313 317 322
202 215 230 242 249 254 256 258 261 263 265 268 269 271 272 272 273 274 275 276 278 278 277 273 264 252 238 223 213 208 206 204 205 208 212 214 212 205 209 234 193 153 150 162 158 156 155 156 161 167 173 181 193 225 257 270 275 277 278 278 279 281 285 292 302 310 315 320 323
208 219 231 242 248 252 255 258 260 264 267 269 270 271 271 271 272 273 274 277 279 281 281 280 275 269 259 246 231 219 211 207 208 209 211 210 207 200 205 232 196 155 151 164 161 158 159 162 168 173 177 180 192 223 251 263 268 269 269 270 274 279 286 298 307 313 318 321 323
211 222 232 243 249 253 256 259 263 266 268 270 269 269 268 268 267 267 267 266 266 266 268 268 269 269 267 262 251 235 222 213 214 214 214 209 203 196 201 231 197 152 151 166 163 161 163 168 174 176 178 178 191 224 248 258 262 264 267 271 277 285 296 307 312 316 319 321 319
212 222 232 241 246 250 254 257 260 261 260 260 260 260 260 261 260 259 257 255 252 250 251 252 255 257 260 262 262 251 233 209 210 213 214 208 201 192 193 229 191 149 152 166 163 164 168 174 178 177 175 174 189 227 250 258 264 269 274 281 289 298 306 312 315 318 318 318 315
213 222 229 236 242 247 253 257 259 259 257 257 257 258 259 260 260 260 258 255 251 249 248 247 247 248 251 254 257 254 237 202 194 197 199 195 187 179 183 228 185 149 152 165 164 167 173 179 178 174 168 165 189 232 253 261 269 277 285 293 299 304 307 311 316 318 318 316 310
219 224 229 235 242 249 254 259 260 261 260 260 261 263 264 264 264 263 261 259 257 256 254 252 250 249 249 249 247 241 225 198 186 181 176 169 168 169 182 227 199 153 152 164 166 172 179 181 176 168 161 161 193 239 257 266 274 284 292 298 300 303 306 313 318 319 316 310 305
225 229 232 239 247 253 257 259 261 262 262 262 263 263 263 264 263 262 260 259 260 259 258 257 257 258 259 258 251 236 216 199 181 168 160 158 165 172 190 226 210 158 153 165 170 177 181 179 171 162 155 157 204 253 266 274 280 287 292 295 296 300 306 316 320 318 312 305 300
228 233 240 249 255 259 262 263 263 263 263 262 262 262 261 261 261 261 260 260 262 264 264 264 266 271 277 284 273 239 203 183 163 155 155 162 172 181 195 222 210 162 154 169 174 179 180 175 166 157 150 151 213 261 273 277 281 285 289 292 293 300 309 319 322 317 309 302 299
237 252 263 268 269 271 271 271 269 267 265 264 263 264 263 262 262 263 264 264 266 268 270 270 273 279 288 302 300 236 173 163 153 152 158 173 182 186 195 214 205 164 156 171 176 178 177 171 163 156 151 153 201 250 267 274 279 282 286 288 291 302 314 324 322 315 306 300 301
260 273 277 277 276 276 275 274 272 270 267 265 264 265 265 265 266 268 269 270 269 269 269 269 272 277 284 296 281 172 159 159 159 161 168 180 186 188 191 206 203 167 157 171 177 178 175 170 163 158 157 164 200 240 260 270 276 279 281 283 293 308 322 326 319 310 302 298 300
272 273 273 272 271 272 272 273 272 271 268 265 265 265 266 267 268 270 271 270 269 268 267 266 271 274 273 204 158 158 164 168 173 175 179 185 185 182 183 195 200 173 162 170 177 178 176 171 167 164 165 172 196 235 257 268 271 273 277 285 305 320 326 322 312 303 297 295 298